Time,TemperatureF,DewpointF,PressureIn,WindDirection,WindDirectionDegrees,WindSpeedMPH,WindSpeedGustMPH,Humidity,HourlyPrecipIn,Conditions,Clouds,dailyrainin,SolarRadiationWatts/m^2,SoftwareType,DateUTC
2013-05-12 00:09:00,61.6,55.0,30.07,NW,326,3.0,6.0,78,0.00,,,0.00,0,weatherlink.com 1.10,2013-05-12 05:09:00,
2013-05-12 00:24:00,62.4,55.0,30.08,NNE,22,2.0,7.0,76,0.00,,,0.00,0,weatherlink.com 1.10,2013-05-12 05:24:00,
2013-05-12 00:39:00,63.1,53.0,30.09,NNW,328,5.0,12.0,69,0.00,,,0.00,0,weatherlink.com 1.10,2013-05-12 05:39:00,
2013-05-12 00:54:00,62.9,52.0,30.09,North,360,5.0,9.0,67,0.00,,,0.00,0,weatherlink.com 1.10,2013-05-12 05:54:00,
2013-05-12 01:09:00,62.4,49.0,30.10,NE,47,3.0,11.0,63,0.00,,,0.00,0,weatherlink.com 1.10,2013-05-12 06:09:00,
2013-05-12 01:24:00,61.8,46.0,30.10,NNW,343,6.0,10.0,57,0.00,,,0.00,0,weatherlink.com 1.10,2013-05-12 06:24:00,
2013-05-12 01:39:00,61.3,45.0,30.11,ENE,64,3.0,8.0,55,0.00,,,0.00,0,weatherlink.com 1.10,2013-05-12 06:39:00,
2013-05-12 01:54:00,60.8,44.0,30.11,NNE,29,3.0,8.0,55,0.00,,,0.00,0,weatherlink.com 1.10,2013-05-12 06:54:00,
2013-05-12 02:09:00,60.1,44.0,30.11,NNW,341,3.0,7.0,56,0.00,,,0.00,0,weatherlink.com 1.10,2013-05-12 07:09:00,
2013-05-12 02:24:00,59.4,44.0,30.11,NE,40,2.0,7.0,57,0.00,,,0.00,0,weatherlink.com 1.10,2013-05-12 07:24:00,
2013-05-12 02:39:00,58.9,43.0,30.12,NNE,16,3.0,7.0,57,0.00,,,0.00,0,weatherlink.com 1.10,2013-05-12 07:39:00,
2013-05-12 02:54:00,58.6,42.0,30.12,NNW,347,2.0,9.0,55,0.00,,,0.00,0,weatherlink.com 1.10,2013-05-12 07:54:00,
2013-05-12 03:10:00,58.2,41.0,30.12,NNW,327,3.0,9.0,53,0.00,,,0.00,0,weatherlink.com 1.10,2013-05-12 08:10:00,
2013-05-12 03:25:00,57.7,40.0,30.13,NNE,27,3.0,8.0,52,0.00,,,0.00,0,weatherlink.com 1.10,2013-05-12 08:25:00,
2013-05-12 03:40:00,57.1,40.0,30.14,NNW,332,3.0,6.0,54,0.00,,,0.00,0,weatherlink.com 1.10,2013-05-12 08:40:00,
2013-05-12 03:55:00,56.4,40.0,30.14,North,10,3.0,5.0,55,0.00,,,0.00,0,weatherlink.com 1.10,2013-05-12 08:55:00,
2013-05-12 04:10:00,55.7,40.0,30.14,North,10,2.0,4.0,56,0.00,,,0.00,0,weatherlink.com 1.10,2013-05-12 09:10:00,
2013-05-12 04:25:00,55.0,41.0,30.14,NNE,30,0.0,3.0,59,0.00,,,0.00,0,weatherlink.com 1.10,2013-05-12 09:25:00,
2013-05-12 04:40:00,54.3,40.0,30.14,NE,35,0.0,3.0,60,0.00,,,0.00,0,weatherlink.com 1.10,2013-05-12 09:40:00,
2013-05-12 04:55:00,53.3,41.0,30.15,NE,35,0.0,1.0,64,0.00,,,0.00,0,weatherlink.com 1.10,2013-05-12 09:55:00,
2013-05-12 05:10:00,52.0,42.0,30.15,NE,35,0.0,2.0,68,0.00,,,0.00,0,weatherlink.com 1.10,2013-05-12 10:10:00,
2013-05-12 05:25:00,50.8,42.0,30.16,NE,35,0.0,0.0,72,0.00,,,0.00,0,weatherlink.com 1.10,2013-05-12 10:25:00,
2013-05-12 05:40:00,49.9,42.0,30.17,NE,35,0.0,3.0,73,0.00,,,0.00,0,weatherlink.com 1.10,2013-05-12 10:40:00,
2013-05-12 05:55:00,49.6,41.0,30.17,North,360,0.0,3.0,72,0.00,,,0.00,0,weatherlink.com 1.10,2013-05-12 10:55:00,
2013-05-12 06:10:00,49.9,41.0,30.18,NNW,331,0.0,1.0,71,0.00,,,0.00,12,weatherlink.com 1.10,2013-05-12 11:10:00,
2013-05-12 06:25:00,49.5,42.0,30.19,NNW,331,0.0,0.0,75,0.00,,,0.00,21,weatherlink.com 1.10,2013-05-12 11:25:00,
2013-05-12 06:40:00,49.7,41.0,30.19,ENE,63,1.0,4.0,72,0.00,,,0.00,63,weatherlink.com 1.10,2013-05-12 11:40:00,
2013-05-12 06:55:00,51.7,41.0,30.20,NE,52,1.0,5.0,67,0.00,,,0.00,109,weatherlink.com 1.10,2013-05-12 11:55:00,
2013-05-12 07:10:00,53.0,41.0,30.20,NNW,343,4.0,5.0,64,0.00,,,0.00,169,weatherlink.com 1.10,2013-05-12 12:10:00,
2013-05-12 07:25:00,54.1,42.0,30.20,North,10,3.0,5.0,63,0.00,,,0.00,229,weatherlink.com 1.10,2013-05-12 12:25:00,
2013-05-12 07:41:00,54.9,41.0,30.21,NW,326,2.0,5.0,60,0.00,,,0.00,281,weatherlink.com 1.10,2013-05-12 12:41:00,
2013-05-12 07:56:00,55.9,40.0,30.22,ENE,68,2.0,7.0,56,0.00,,,0.00,336,weatherlink.com 1.10,2013-05-12 12:56:00,
2013-05-12 08:11:00,56.6,40.0,30.22,NE,45,0.0,8.0,54,0.00,,,0.00,394,weatherlink.com 1.10,2013-05-12 13:11:00,
2013-05-12 08:26:00,57.6,39.0,30.22,NNE,22,4.0,6.0,51,0.00,,,0.00,446,weatherlink.com 1.10,2013-05-12 13:26:00,
2013-05-12 08:41:00,58.2,39.0,30.22,NE,36,1.0,8.0,49,0.00,,,0.00,497,weatherlink.com 1.10,2013-05-12 13:41:00,
2013-05-12 08:56:00,58.2,39.0,30.23,NW,324,6.0,11.0,49,0.00,,,0.00,550,weatherlink.com 1.10,2013-05-12 13:56:00,
2013-05-12 09:11:00,58.5,37.0,30.23,East,88,3.0,11.0,45,0.00,,,0.00,596,weatherlink.com 1.10,2013-05-12 14:11:00,
2013-05-12 09:26:00,58.9,37.0,30.23,East,82,2.0,13.0,45,0.00,,,0.00,643,weatherlink.com 1.10,2013-05-12 14:26:00,
2013-05-12 09:41:00,59.3,37.0,30.23,NNE,24,5.0,9.0,44,0.00,,,0.00,686,weatherlink.com 1.10,2013-05-12 14:41:00,
2013-05-12 09:56:00,60.0,37.0,30.23,North,352,4.0,9.0,42,0.00,,,0.00,728,weatherlink.com 1.10,2013-05-12 14:56:00,
2013-05-12 10:11:00,60.4,38.0,30.23,NNW,329,6.0,9.0,44,0.00,,,0.00,772,weatherlink.com 1.10,2013-05-12 15:11:00,
2013-05-12 10:26:00,60.8,39.0,30.23,NNW,338,6.0,8.0,44,0.00,,,0.00,809,weatherlink.com 1.10,2013-05-12 15:26:00,
2013-05-12 10:41:00,61.2,35.0,30.23,NNE,27,5.0,12.0,38,0.00,,,0.00,844,weatherlink.com 1.10,2013-05-12 15:41:00,
2013-05-12 10:56:00,61.1,36.0,30.23,NW,310,5.0,9.0,39,0.00,,,0.00,874,weatherlink.com 1.10,2013-05-12 15:56:00,
2013-05-12 11:11:00,62.1,38.0,30.23,ENE,57,10.0,10.0,41,0.00,,,0.00,902,weatherlink.com 1.10,2013-05-12 16:11:00,
2013-05-12 11:27:00,61.9,36.0,30.23,NNW,332,6.0,9.0,39,0.00,,,0.00,926,weatherlink.com 1.10,2013-05-12 16:27:00,
2013-05-12 11:42:00,62.1,37.0,30.23,NNW,342,6.0,9.0,39,0.00,,,0.00,951,weatherlink.com 1.10,2013-05-12 16:42:00,
2013-05-12 11:57:00,62.8,37.0,30.23,NW,325,5.0,8.0,38,0.00,,,0.00,976,weatherlink.com 1.10,2013-05-12 16:57:00,
2013-05-12 12:12:00,62.8,33.0,30.23,NE,39,3.0,11.0,33,0.00,,,0.00,988,weatherlink.com 1.10,2013-05-12 17:12:00,
2013-05-12 12:27:00,62.6,31.0,30.23,WNW,297,4.0,10.0,30,0.00,,,0.00,988,weatherlink.com 1.10,2013-05-12 17:27:00,
2013-05-12 12:42:00,62.7,34.0,30.22,NNW,330,6.0,7.0,34,0.00,,,0.00,986,weatherlink.com 1.10,2013-05-12 17:42:00,
2013-05-12 12:57:00,63.1,36.0,30.21,NW,310,8.0,8.0,37,0.00,,,0.00,981,weatherlink.com 1.10,2013-05-12 17:57:00,
2013-05-12 13:12:00,63.6,35.0,30.21,NNW,348,1.0,11.0,34,0.00,,,0.00,981,weatherlink.com 1.10,2013-05-12 18:12:00,
2013-05-12 13:27:00,64.0,35.0,30.20,NNE,29,9.0,9.0,34,0.00,,,0.00,974,weatherlink.com 1.10,2013-05-12 18:27:00,
2013-05-12 13:42:00,63.8,34.0,30.20,WNW,293,3.0,9.0,33,0.00,,,0.00,965,weatherlink.com 1.10,2013-05-12 18:42:00,
2013-05-12 13:57:00,64.4,35.0,30.21,NW,314,4.0,8.0,34,0.00,,,0.00,962,weatherlink.com 1.10,2013-05-12 18:57:00,
2013-05-12 14:12:00,64.6,35.0,30.20,East,87,6.0,10.0,33,0.00,,,0.00,947,weatherlink.com 1.10,2013-05-12 19:12:00,
2013-05-12 14:27:00,64.5,34.0,30.21,ENE,64,2.0,8.0,32,0.00,,,0.00,918,weatherlink.com 1.10,2013-05-12 19:27:00,
2013-05-12 14:42:00,64.7,37.0,30.20,NW,312,8.0,10.0,36,0.00,,,0.00,896,weatherlink.com 1.10,2013-05-12 19:42:00,
2013-05-12 14:57:00,64.8,36.0,30.20,SW,219,3.0,7.0,34,0.00,,,0.00,868,weatherlink.com 1.10,2013-05-12 19:57:00,
2013-05-12 15:12:00,65.1,37.0,30.20,NNW,328,4.0,7.0,35,0.00,,,0.00,823,weatherlink.com 1.10,2013-05-12 20:12:00,
2013-05-12 15:27:00,65.6,36.0,30.20,WNW,282,2.0,7.0,33,0.00,,,0.00,789,weatherlink.com 1.10,2013-05-12 20:27:00,
2013-05-12 15:42:00,64.9,35.0,30.20,NW,317,5.0,9.0,33,0.00,,,0.00,751,weatherlink.com 1.10,2013-05-12 20:42:00,
2013-05-12 15:57:00,65.0,39.0,30.19,NNE,14,3.0,10.0,39,0.00,,,0.00,712,weatherlink.com 1.10,2013-05-12 20:57:00,
2013-05-12 16:12:00,65.9,34.0,30.19,WNW,298,4.0,9.0,30,0.00,,,0.00,673,weatherlink.com 1.10,2013-05-12 21:12:00,
2013-05-12 16:27:00,65.4,34.0,30.20,WNW,293,6.0,13.0,31,0.00,,,0.00,575,weatherlink.com 1.10,2013-05-12 21:27:00,
2013-05-12 16:42:00,65.6,35.0,30.20,NW,326,2.0,13.0,32,0.00,,,0.00,570,weatherlink.com 1.10,2013-05-12 21:42:00,
2013-05-12 16:57:00,66.3,35.0,30.20,NW,324,5.0,8.0,31,0.00,,,0.00,541,weatherlink.com 1.10,2013-05-12 21:57:00,
2013-05-12 17:12:00,65.6,34.0,30.19,North,10,5.0,10.0,31,0.00,,,0.00,434,weatherlink.com 1.10,2013-05-12 22:12:00,
2013-05-12 17:27:00,65.5,35.0,30.19,WNW,303,6.0,8.0,32,0.00,,,0.00,454,weatherlink.com 1.10,2013-05-12 22:27:00,
2013-05-12 17:42:00,65.3,35.0,30.19,NNW,338,5.0,10.0,33,0.00,,,0.00,285,weatherlink.com 1.10,2013-05-12 22:42:00,
2013-05-12 17:57:00,65.1,36.0,30.18,NW,324,2.0,7.0,34,0.00,,,0.00,279,weatherlink.com 1.10,2013-05-12 22:57:00,
2013-05-12 18:12:00,65.1,37.0,30.18,West,278,4.0,6.0,35,0.00,,,0.00,288,weatherlink.com 1.10,2013-05-12 23:12:00,
2013-05-12 18:27:00,64.9,36.0,30.17,NW,305,4.0,9.0,34,0.00,,,0.00,199,weatherlink.com 1.10,2013-05-12 23:27:00,
2013-05-12 18:42:00,64.6,37.0,30.17,NNW,348,4.0,5.0,36,0.00,,,0.00,190,weatherlink.com 1.10,2013-05-12 23:42:00,
2013-05-12 18:57:00,64.5,37.0,30.17,NW,326,2.0,4.0,36,0.00,,,0.00,121,weatherlink.com 1.10,2013-05-12 23:57:00,
2013-05-12 19:12:00,63.7,36.0,30.18,NW,307,3.0,5.0,36,0.00,,,0.00,67,weatherlink.com 1.10,2013-05-13 00:12:00,
2013-05-12 19:27:00,63.3,36.0,30.17,North,360,2.0,4.0,36,0.00,,,0.00,32,weatherlink.com 1.10,2013-05-13 00:27:00,
2013-05-12 19:42:00,62.1,37.0,30.16,NNW,345,0.0,2.0,39,0.00,,,0.00,12,weatherlink.com 1.10,2013-05-13 00:42:00,
2013-05-12 19:57:00,60.0,39.0,30.16,NNW,340,0.0,0.0,46,0.00,,,0.00,0,weatherlink.com 1.10,2013-05-13 00:57:00,
2013-05-12 20:12:00,57.9,39.0,30.17,NNW,340,0.0,0.0,49,0.00,,,0.00,0,weatherlink.com 1.10,2013-05-13 01:12:00,
2013-05-12 20:27:00,56.1,40.0,30.18,NNW,340,0.0,1.0,55,0.00,,,0.00,0,weatherlink.com 1.10,2013-05-13 01:27:00,
2013-05-12 20:42:00,54.8,42.0,30.17,NNW,340,0.0,0.0,63,0.00,,,0.00,0,weatherlink.com 1.10,2013-05-13 01:42:00,
2013-05-12 20:57:00,53.7,42.0,30.18,NNW,340,0.0,1.0,66,0.00,,,0.00,0,weatherlink.com 1.10,2013-05-13 01:57:00,
2013-05-12 21:12:00,52.3,43.0,30.18,NNW,340,0.0,0.0,71,0.00,,,0.00,0,weatherlink.com 1.10,2013-05-13 02:12:00,
2013-05-12 21:27:00,51.1,42.0,30.19,NNW,340,0.0,0.0,72,0.00,,,0.00,0,weatherlink.com 1.10,2013-05-13 02:27:00,
2013-05-12 21:42:00,50.2,42.0,30.19,NNW,340,0.0,0.0,74,0.00,,,0.00,0,weatherlink.com 1.10,2013-05-13 02:42:00,
2013-05-12 21:57:00,50.2,43.0,30.18,NNW,340,0.0,1.0,75,0.00,,,0.00,0,weatherlink.com 1.10,2013-05-13 02:57:00,
2013-05-12 22:12:00,49.8,43.0,30.18,NNW,340,0.0,0.0,76,0.00,,,0.00,0,weatherlink.com 1.10,2013-05-13 03:12:00,
2013-05-12 22:27:00,48.6,42.0,30.18,NNW,340,0.0,0.0,79,0.00,,,0.00,0,weatherlink.com 1.10,2013-05-13 03:27:00,
2013-05-12 22:42:00,48.6,44.0,30.19,NNW,340,0.0,0.0,83,0.00,,,0.00,0,weatherlink.com 1.10,2013-05-13 03:42:00,
2013-05-12 22:57:00,48.0,43.0,30.19,NNW,340,0.0,0.0,83,0.00,,,0.00,0,weatherlink.com 1.10,2013-05-13 03:57:00,
2013-05-12 23:12:00,47.6,43.0,30.19,NNW,340,0.0,1.0,84,0.00,,,0.00,0,weatherlink.com 1.10,2013-05-13 04:12:00,
2013-05-12 23:27:00,47.6,43.0,30.19,NNW,340,0.0,1.0,84,0.00,,,0.00,0,weatherlink.com 1.10,2013-05-13 04:27:00,
2013-05-12 23:42:00,48.0,42.0,30.19,NNW,340,0.0,1.0,81,0.00,,,0.00,0,weatherlink.com 1.10,2013-05-13 04:42:00,
2013-05-12 23:57:00,48.8,43.0,30.19,NNW,340,0.0,1.0,80,0.00,,,0.00,0,weatherlink.com 1.10,2013-05-13 04:57:00,